Regional Weather Roundup
Issued by NWS

Home | Current Version | Previous Version | Graphics & Text | Print | Product List | Glossary On
Versions: 1 2 3 4 5 6 7 8 9 10 11 12 13 14 15 16 17 18 19 20 21 22 23 24 25 26 27 28 29 30 31 32 33 34 35 36 37 38 39 40 41 42 43 44 45 46 47 48 49 50
000
ASUS43 KLSX 271057
RWRMO

WEATHER SUMMARY FOR MISSOURI
NATIONAL WEATHER SERVICE SPRINGFIELD MO
600 AM CDT FRI MAY 27 2016

NOTE: "FAIR" INDICATES FEW OR NO CLOUDS BELOW 12,000 FEET WITH NO
       SIGNIFICANT WEATHER AND/OR OBSTRUCTIONS TO VISIBILITY.
       CURRENT SKY AND/OR WEATHER CONDITIONS ARE NOT AVAILABLE FOR
       CHILLICOTHE AND FARMINGTON.

MOZ001>031-035>038-043-044-053-054-271200-
...NORTHERN AND WESTERN MISSOURI...

CITY           SKY/WX    TMP DP  RH WIND       PRES   REMARKS
KANSAS CTY INT CLOUDY    62  60  93 N8        29.70R
LEE`S SUMMIT   CLOUDY    62  61  96 W3        29.71R
ST JOSEPH      PTCLDY    61  59  93 N5        29.69F
CHILLICOTHE      N/A     64  63  96 E12G18    29.72F

$$
MOZ066>068-077>081-088>096-101>105-271200-
...SOUTHWEST MISSOURI...

CITY           SKY/WX    TMP DP  RH WIND       PRES   REMARKS
SPRINGFIELD    PTCLDY    69  65  86 SE10      29.76F
JOPLIN         CLOUDY    61  59  93 CALM      29.80R

$$
MOZ032>034-039>042-045>050-055>058-069>072-271200-
...CENTRAL MISSOURI...

CITY           SKY/WX    TMP DP  RH WIND       PRES   REMARKS
COLUMBIA       CLOUDY    66  66 100 SE12      29.81F
JEFFERSON CITY CLOUDY    68  65  90 SE14      29.80F
ROLLA          LGT RAIN  66  65  96 SE13      29.83F
SEDALIA        CLOUDY    69  66  90 MISG      29.74F
WHITEMAN AFB   CLOUDY    66  66 100 SE10      29.69F
WARRENSBURG    MOCLDY    61  61 100 CALM      29.70F

$$
MOZ051-052-059>065-271200-
...EAST CENTRAL MISSOURI...

CITY           SKY/WX    TMP DP  RH WIND       PRES   REMARKS
ST LOUIS INTL  LGT RAIN  69  65  86 S8        29.89F FOG

$$
MOZ072>076-082>087-097>100-106>115-271200-
...SOUTH CENTRAL AND SOUTHEAST MISSOURI...

CITY           SKY/WX    TMP DP  RH WIND       PRES   REMARKS
CAPE GIRARDEAU CLOUDY    66  65  96 E5        29.92S
POPLAR BLUFF   RAIN      67  66  97 S3        29.89R FOG
WEST PLAINS    CLOUDY    68  64  87 SE8       29.86S

$$



USA.gov is the U.S. government's official web portal to all federal, state and local government web resources and services.